[[{"header":{"parameterUnit":"m.s-1","parameterCategory":1,"la1":30.2991,"la2":30.254,"lo1":-89.0895,"lo2":-89.0444,"dy":0.0017,"dx":0.0017,"nx":28,"ny":28,"refTime":"2025-04-21T03:00:00:Z","depth":0,"parameterNumber":2,"parameterNumberName":"U-component_of_WINDS"},"data":[0,0,0,0,0,0,0,0,0,0,0,0,0,0,0,0,0,0,0,0,0,0,0,0,0,0,0,0,0,0,0,0,0,0,0,0,0,0,0,0,0,0,0,0,0,0,0,0,0,0,0,0,0,0,0,0,0,0,-1.6855,-1.6856,0,-1.6952,-1.6953,-1.6954,-1.6996,-1.6996,-1.6996,-1.6996,-1.7093,-1.7095,-1.7098,0,0,0,0,0,0,0,0,0,0,0,0,0,-1.6706,-1.6708,-1.6855,-1.6856,-1.6857,-1.6952,-1.6953,-1.6954,-1.6996,-1.6996,-1.6996,-1.6996,-1.7092,-1.7095,-1.7098,0,0,0,0,0,0,0,0,0,0,0,0,0,-1.6783,-1.6709,-1.6855,-1.689,-1.6894,-1.6951,-1.6953,-1.6955,-1.6996,-1.6996,-1.6996,-1.6996,-1.7091,-1.7095,-1.7099,-1.7128,0,0,-1.7111,-1.7113,0,0,0,0,0,0,0,0,-1.6779,-1.6789,-1.6883,-1.6888,-1.6892,-1.6962,-1.6936,-1.7013,-1.6996,-1.6957,-1.6996,-1.6996,-1.7049,-1.7057,-1.7075,-1.7132,-1.7136,-1.7111,-1.7114,-1.7115,-1.7117,0,0,0,0,0,0,0,-1.6773,-1.6785,-1.6893,-1.6885,-1.689,-1.69,-1.6911,-1.6951,-1.7003,-1.6961,-1.6964,-1.6975,-1.7051,-1.7071,-1.7078,-1.7138,-1.7111,-1.7115,-1.7117,-1.7119,-1.7225,-1.7225,0,0,0,0,0,0,-1.6762,-1.678,-1.689,-1.6896,-1.6834,-1.6903,-1.6915,-1.694,-1.7003,-1.7012,-1.6975,-1.6977,-1.7064,-1.7073,-1.7081,-1.712,-1.7115,-1.7119,-1.7122,-1.7225,-1.7225,-1.7225,0,0,0,0,0,0,-1.6759,-1.6772,-1.6886,-1.6839,-1.6854,-1.6906,-1.6933,-1.6942,-1.6961,-1.7014,-1.7023,-1.6986,-1.7064,-1.7075,-1.7116,-1.7124,-1.7121,-1.7125,-1.7224,-1.7225,-1.7225,-1.7198,0,0,0,0,0,0,-1.6755,-1.677,-1.6782,-1.6839,-1.6857,-1.692,-1.6934,-1.6944,-1.6969,-1.6971,-1.7026,-1.7035,-1.7065,-1.711,-1.712,-1.713,-1.7128,-1.7224,-1.7224,-1.7225,-1.7198,-1.7197,-1.7197,0,0,0,0,0,-1.6749,-1.677,-1.6782,-1.6795,-1.6873,-1.692,-1.693,-1.6965,-1.6969,-1.6981,-1.7015,-1.7033,-1.7122,-1.7114,-1.7126,-1.7136,-1.7223,-1.7224,-1.7225,-1.7199,-1.7198,-1.7197,0,0,0,0,0,0,-1.6711,-1.6778,-1.6793,-1.6832,-1.687,-1.6927,-1.6944,-1.6963,-1.7,-1.7001,-1.7043,-1.7055,-1.7092,-1.7118,-1.7108,-1.7169,-1.7174,-1.7177,-1.715,-1.7149,-1.7149,-1.7141,-1.7131,0,0,0,0,0,-1.6708,-1.6741,-1.6797,-1.6827,-1.6846,-1.6891,-1.6913,-1.6937,-1.6978,-1.6994,-1.7031,-1.7069,-1.7106,-1.7129,-1.7166,-1.7203,-1.7215,-1.7216,-1.7215,-1.7214,-1.7216,-1.7239,-1.724,-1.7228,-1.7228,-1.7228,0,0,-1.67,-1.6741,-1.6759,-1.6821,-1.6853,-1.6887,-1.6904,-1.6939,-1.6965,-1.6999,-1.704,-1.7069,-1.7115,-1.7154,-1.7173,-1.7177,-1.7223,-1.7215,-1.7214,-1.7217,-1.724,-1.7241,-1.7242,-1.7229,-1.7229,-1.7229,0,0,-1.6704,-1.6738,-1.6767,-1.6799,-1.6849,-1.6879,-1.6886,-1.6941,-1.6961,-1.7004,-1.7031,-1.7061,-1.7123,-1.7155,-1.718,-1.7197,-1.7216,-1.7208,-1.7204,-1.7225,-1.7226,-1.7227,-1.7234,-1.7236,-1.721,-1.721,-1.721,0,-1.6688,-1.6741,-1.6779,-1.6813,-1.6839,-1.6874,-1.6903,-1.6933,-1.6991,-1.7008,-1.7012,-1.7092,-1.7125,-1.7173,-1.7177,-1.7196,-1.7205,-1.7202,-1.7223,-1.7224,-1.7226,-1.7233,-1.7235,-1.7209,-1.7209,-1.7209,-1.7209,0,-1.6719,-1.6756,-1.6773,-1.683,-1.6858,-1.689,-1.6933,-1.6957,-1.6979,-1.7009,-1.7052,-1.7093,-1.7139,-1.7152,-1.7173,-1.7203,-1.7204,-1.7215,-1.7221,-1.7225,-1.7232,-1.7235,-1.7207,-1.7208,-1.7208,-1.7208,0,0,-1.6701,-1.678,-1.6786,-1.6812,-1.687,-1.6898,-1.6932,-1.6978,-1.6998,-1.7037,-1.7067,-1.7119,-1.713,-1.7158,-1.7183,-1.7202,-1.7214,-1.721,-1.7212,-1.721,-1.725,-1.7241,-1.7244,-1.7227,-1.7227,-1.7228,-1.7246,0,-1.6713,-1.6775,-1.6811,-1.6858,-1.6892,-1.6926,-1.6955,-1.6993,-1.7023,-1.7056,-1.7088,-1.7125,-1.7136,-1.7153,-1.7174,-1.7208,-1.7222,-1.7207,-1.7254,-1.7255,-1.7241,-1.7248,-1.7238,-1.7254,-1.7249,-1.725,-1.725,0,-1.6735,-1.6775,-1.6825,-1.6881,-1.6896,-1.6922,-1.6968,-1.6999,-1.7044,-1.7064,-1.7095,-1.7121,-1.7157,-1.7161,-1.7212,-1.7201,-1.7223,-1.7243,-1.7244,-1.7249,-1.7252,-1.7253,-1.726,-1.7262,-1.7255,-1.7255,-1.7254,0,-1.6717,-1.6783,-1.6823,-1.6844,-1.6909,-1.6927,-1.6955,-1.6999,-1.7025,-1.7065,-1.7082,-1.7125,-1.7149,-1.7182,-1.7218,-1.7218,-1.7266,-1.7273,-1.7284,-1.7283,-1.7292,-1.7291,-1.7302,-1.7306,-1.7306,-1.7305,-1.7305,0,-1.6726,-1.6756,-1.6816,-1.684,-1.6874,-1.6916,-1.6948,-1.6979,-1.7019,-1.7049,-1.7081,-1.7109,-1.7155,-1.7189,-1.7218,-1.7256,-1.7266,-1.7284,-1.7291,-1.7281,-1.7279,-1.7295,-1.7295,-1.7306,-1.7306,-1.7306,-1.7306,0,-1.6712,-1.6753,-1.6798,-1.6856,-1.6872,-1.6895,-1.6945,-1.6969,-1.7001,-1.7039,-1.7051,-1.71,-1.7142,-1.7182,-1.7237,-1.7256,-1.7294,-1.7304,-1.7279,-1.7284,-1.7292,-1.7291,-1.7314,-1.7319,-1.7319,-1.7319,-1.7319,0,-1.6715,-1.6739,-1.6801,-1.6824,-1.6851,-1.6888,-1.6915,-1.6957,-1.6984,-1.7037,-1.7055,-1.7099,-1.7137,-1.7202,-1.7242,-1.7285,-1.7296,-1.7301,-1.7302,-1.7291,-1.7296,-1.7294,-1.7297,-1.7299,-1.7299,-1.7299,-1.7299,0,-1.6717,-1.6736,-1.6774,-1.682,-1.6851,-1.6889,-1.6928,-1.6945,-1.6994,-1.7023,-1.7066,-1.7095,-1.7152,-1.7196,-1.7243,-1.7272,-1.7294,-1.7299,-1.7303,-1.7293,-1.7278,-1.7287,-1.7277,-1.7298,-1.7298,-1.7298,-1.7298,-1.7298,-1.6712,-1.6735,-1.6782,-1.6824,-1.6858,-1.6893,-1.692,-1.6955,-1.6992,-1.7043,-1.7065,-1.7109,-1.7154,-1.7221,-1.7249,-1.7284,-1.7289,-1.7296,-1.7297,-1.7298,-1.7296,-1.7273,-1.7292,-1.7292,-1.7293,-1.7293,-1.7293,0,-1.6716,-1.6748,-1.6786,-1.684,-1.6872,-1.6891,-1.6935,-1.6961,-1.7,-1.704,-1.7077,-1.7127,-1.717,-1.7214,-1.7259,-1.7279,-1.729,-1.7289,-1.7288,-1.7294,-1.7289,-1.728,-1.7279,-1.7279,-1.7279,-1.7279,-1.7279,-1.7279,-1.6721,-1.6762,-1.6787,-1.6845,-1.6877,-1.6921,-1.6945,-1.6978,-1.7011,-1.7065,-1.7101,-1.7131,-1.7173,-1.7222,-1.7262,-1.7274,-1.7289,-1.7285,-1.73,-1.7294,-1.7295,-1.7295,-1.7288,-1.7288,-1.7288,-1.7302,-1.7302,-1.7303]},{"header":{"parameterUnit":"m.s-1","parameterCategory":1,"la1":30.2991,"la2":30.254,"lo1":-89.0895,"lo2":-89.0444,"dy":0.0017,"dx":0.0017,"nx":28,"ny":28,"refTime":"2025-04-21T03:00:00:Z","depth":0,"parameterNumber":3,"parameterNumberName":"V-component_of_WINDS"},"data":[0,0,0,0,0,0,0,0,0,0,0,0,0,0,0,0,0,0,0,0,0,0,0,0,0,0,0,0,0,0,0,0,0,0,0,0,0,0,0,0,0,0,0,0,0,0,0,0,0,0,0,0,0,0,0,0,0,0,4.2267,4.2266,0,4.2218,4.2218,4.2217,4.2134,4.2132,4.2131,4.2129,4.208,4.2081,4.2081,0,0,0,0,0,0,0,0,0,0,0,0,0,4.2288,4.2288,4.2267,4.2266,4.2266,4.2219,4.2218,4.2217,4.2134,4.2132,4.213,4.2128,4.208,4.2081,4.2081,0,0,0,0,0,0,0,0,0,0,0,0,0,4.2263,4.2288,4.2267,4.2218,4.2214,4.2219,4.2218,4.2217,4.2134,4.2132,4.213,4.2128,4.208,4.2081,4.2081,4.213,0,0,4.2082,4.2082,0,0,0,0,0,0,0,0,4.2265,4.2263,4.2226,4.2222,4.2216,4.218,4.2207,4.2188,4.2135,4.2165,4.2129,4.2126,4.2115,4.2113,4.2109,4.2127,4.2125,4.2082,4.2082,4.2082,4.2082,0,0,0,0,0,0,0,4.2267,4.2264,4.2248,4.2226,4.222,4.2199,4.2193,4.2203,4.2154,4.2162,4.2156,4.2151,4.2112,4.2109,4.2107,4.2124,4.2082,4.2082,4.2082,4.2082,4.218,4.2183,0,0,0,0,0,0,4.2275,4.2266,4.2249,4.2246,4.2235,4.2201,4.2194,4.2194,4.2153,4.2145,4.2153,4.2147,4.2109,4.2107,4.2105,4.2159,4.2082,4.2082,4.2082,4.2178,4.2181,4.2184,0,0,0,0,0,0,4.2276,4.2275,4.2251,4.2255,4.225,4.2203,4.2204,4.2194,4.219,4.2147,4.2138,4.2158,4.2107,4.2105,4.2124,4.2156,4.2082,4.2082,4.2175,4.2179,4.2182,4.2267,0,0,0,0,0,0,4.2277,4.2275,4.2293,4.2256,4.225,4.2271,4.2206,4.2195,4.2191,4.2183,4.2149,4.2142,4.2105,4.2124,4.2124,4.2155,4.2083,4.2172,4.2177,4.2181,4.2261,4.2273,4.2283,0,0,0,0,0,4.2278,4.2319,4.2294,4.2293,4.2271,4.2273,4.227,4.2227,4.2194,4.2211,4.2184,4.2143,4.2153,4.2127,4.2126,4.2157,4.217,4.2175,4.2181,4.2256,4.2271,4.2283,0,0,0,0,0,0,4.2362,4.2313,4.2285,4.2315,4.2299,4.2259,4.2279,4.2244,4.2237,4.2229,4.2177,4.217,4.2196,4.2179,4.2151,4.2202,4.2155,4.2161,4.2212,4.2226,4.2237,4.224,4.2083,0,0,0,0,0,4.2384,4.2389,4.2346,4.2377,4.237,4.2327,4.2326,4.2294,4.2275,4.2268,4.2241,4.2224,4.2224,4.2224,4.2221,4.2259,4.225,4.228,4.2292,4.2301,4.2306,4.2324,4.2337,4.2202,4.2202,4.2202,0,0,4.2429,4.2403,4.2409,4.2393,4.2376,4.2383,4.2321,4.2331,4.2335,4.2269,4.2285,4.2266,4.2244,4.2272,4.2284,4.2259,4.2342,4.2308,4.2316,4.2315,4.2331,4.2344,4.2355,4.2206,4.2205,4.2204,0,0,4.2514,4.2495,4.2518,4.2503,4.2479,4.245,4.2456,4.2421,4.2406,4.2421,4.2372,4.2377,4.2377,4.2363,4.2356,4.2438,4.2399,4.2438,4.2496,4.2514,4.2525,4.2534,4.2562,4.2573,4.2444,4.2444,4.2444,0,4.2573,4.258,4.2535,4.2547,4.2541,4.2483,4.2506,4.2494,4.247,4.2468,4.244,4.2439,4.242,4.2444,4.2464,4.2461,4.2466,4.2441,4.2527,4.2536,4.2544,4.257,4.2581,4.2449,4.2448,4.2448,4.2447,0,4.2653,4.266,4.2681,4.266,4.2657,4.2675,4.2632,4.2635,4.2604,4.2579,4.2595,4.2571,4.2562,4.2566,4.2536,4.2586,4.2571,4.2537,4.2487,4.2562,4.2586,4.2595,4.2456,4.2454,4.2453,4.2451,0,0,4.2787,4.2741,4.275,4.2739,4.2709,4.2713,4.2729,4.272,4.2723,4.271,4.2721,4.2723,4.2691,4.2683,4.2652,4.2668,4.2733,4.2631,4.263,4.265,4.2786,4.2811,4.2823,4.2709,4.2711,4.2712,4.2787,0,4.2865,4.2888,4.2848,4.2881,4.2886,4.2831,4.2845,4.2828,4.2805,4.2806,4.2781,4.2782,4.274,4.2735,4.2749,4.2722,4.276,4.2717,4.2718,4.2719,4.2723,4.2836,4.2862,4.2934,4.2796,4.2798,4.2799,0,4.2958,4.2948,4.2982,4.295,4.295,4.2963,4.2952,4.2954,4.2934,4.2916,4.2908,4.2871,4.2885,4.2839,4.2857,4.2828,4.2827,4.2814,4.2816,4.2813,4.2762,4.2834,4.2956,4.2967,4.2813,4.2812,4.2811,0,4.305,4.3047,4.3066,4.3059,4.3022,4.3033,4.3018,4.2996,4.2993,4.2984,4.2982,4.2974,4.297,4.2965,4.2928,4.2898,4.295,4.2901,4.2934,4.2935,4.2946,4.2945,4.3068,4.2949,4.2948,4.2948,4.2948,0,4.314,4.3162,4.3107,4.3119,4.3142,4.3097,4.3121,4.3101,4.3083,4.3089,4.3043,4.305,4.3001,4.3003,4.2974,4.2993,4.2992,4.2977,4.2969,4.298,4.2982,4.2977,4.2971,4.2951,4.295,4.295,4.2949,0,4.3246,4.3211,4.3228,4.3192,4.3184,4.3203,4.3172,4.3182,4.3157,4.3166,4.3166,4.3126,4.3126,4.3089,4.3082,4.3062,4.3093,4.3076,4.3099,4.3093,4.3128,4.3125,4.3251,4.3265,4.3138,4.3139,4.3141,0,4.3305,4.332,4.3287,4.3288,4.3276,4.3279,4.3276,4.3233,4.3232,4.3211,4.3223,4.322,4.3215,4.3218,4.3188,4.3183,4.3165,4.321,4.3164,4.3175,4.3164,4.3163,4.3164,4.3219,4.322,4.3221,4.3222,0,4.3412,4.3394,4.3391,4.3383,4.3381,4.3372,4.336,4.3364,4.3317,4.3319,4.3318,4.3315,4.3308,4.3305,4.3294,4.3279,4.3243,4.3238,4.3245,4.3256,4.3268,4.326,4.3124,4.3234,4.3233,4.3232,4.3232,4.3231,4.3495,4.3506,4.3485,4.3483,4.347,4.3461,4.3468,4.3444,4.3443,4.3433,4.3409,4.3413,4.3393,4.3375,4.3363,4.3366,4.3344,4.3355,4.3357,4.336,4.3366,4.3269,4.3364,4.3364,4.3363,4.3363,4.3363,0,4.3598,4.3582,4.3582,4.3567,4.3566,4.3533,4.3519,4.3521,4.3525,4.351,4.3506,4.3506,4.3503,4.3474,4.3468,4.3476,4.3459,4.3476,4.3474,4.3471,4.3387,4.3381,4.3489,4.3489,4.3489,4.3489,4.3489,4.3489,4.3652,4.3669,4.3649,4.3659,4.3643,4.3646,4.3641,4.3632,4.362,4.3622,4.3619,4.3601,4.358,4.3572,4.3568,4.356,4.3559,4.3581,4.3567,4.3489,4.3477,4.3465,4.3459,4.3582,4.3582,4.365,4.3651,4.3651]}]]